Home > Weather > Iasi > Past weeks

Flag for Romania Past Weather in Iasi, Romania — Yesterday and Last 2 Weeks

Now
64 °F

Scattered clouds.


Feels Like: 64 °F
Forecast: 55 / 67 °F
Wind: 15 mph from Northeast

Location: Iasi Airport

Current Time: May 25, 2016 at 2:16:38 PM

Latest Report: May 25, 2016 at 1:30 PM


Visibility: N/A

Pressure: 29.59 "Hg

Humidity: 83%

Dew Point: 59 °F

Location of IasiLocation

Past Weather in Iasi — Graph

°F

Iasi Temperature Yesterday

Maximum temperature yesterday: 73 °F (at 10:30 AM)
Minimum temperature yesterday: 57 °F (at 5:30 AM)
Average temperature yesterday: 66 °F

High & Low Weather Summary for the Past Weeks

 TemperatureHumidityPressure
High77 °F (May 23, 3:00 PM)100% (May 11, 4:00 AM)30.15 "Hg (May 11, 4:00 AM)
Low41 °F (May 19, 5:00 AM)27% (May 21, 6:00 PM)29.42 "Hg (May 13, 7:00 PM)
Average60 °F67%29.84 "Hg
* Reported May 10 1:00 PM — May 25 1:00 PM, Iasi, Weather by CustomWeather, © 2016

Note: Actual official high and low records may vary slightly from our data, if they occured in-between our weather recording intervals... More about our weather records

Advertising

Iasi Weather History for the Previous 24 Hours

Scroll right to see more
 ConditionsComfort  
Time TempWeatherWind HumidityBarometerVisibility
1:00 PM
Wed, May 25
61 °FLight rain. Partly sunny.12 mph88%29.59 "HgN/A
12:30 PM61 °FLight rain. Scattered clouds.9 mph94%29.59 "Hg6 mi
12:00 PM59 °FSprinkles. Scattered clouds.9 mph94%29.59 "HgN/A
11:30 AM59 °FSprinkles. Partly sunny.12 mph88%29.59 "Hg4 mi
11:00 AM61 °FPassing clouds.13 mph83%29.59 "HgN/A
10:30 AM61 °FPassing clouds.10 mph83%29.59 "HgN/A
10:00 AM61 °FScattered clouds.15 mph88%29.59 "HgN/A
9:30 AM61 °FScattered clouds.14 mph88%29.56 "HgN/A
9:00 AM59 °FPassing clouds.9 mph88%29.56 "HgN/A
8:30 AM57 °FPassing clouds.10 mph94%29.56 "HgN/A
8:00 AM57 °FLight rain. Mostly cloudy.15 mph94%29.56 "Hg6 mi
7:30 AM57 °FRain. More clouds than sun.14 mph94%29.56 "Hg5 mi
6:00 AM57 °FRain. Partly cloudy.13 mph94%29.53 "Hg4 mi
5:30 AM57 °FLight rain. Passing clouds.12 mph94%29.53 "HgN/A
5:00 AM57 °FPassing clouds.9 mph94%29.53 "HgN/A
4:00 AM57 °FPassing clouds.7 mph94%29.56 "HgN/A
3:00 AM57 °FSprinkles. Passing clouds.9 mph94%29.56 "HgN/A
2:00 AM57 °FClear.12 mph94%29.59 "Hg10 mi
1:00 AM57 °FPartly cloudy.9 mph94%29.62 "HgN/A
12:00 AM57 °FSprinkles. Mostly cloudy.9 mph100%29.62 "HgN/A
11:00 PM
Tue, May 24
57 °FSprinkles. Partly cloudy.2 mph94%29.62 "Hg5 mi
10:00 PM59 °FSprinkles. Partly cloudy.3 mph94%29.68 "HgN/A
9:00 PM61 °FThundershowers. More clouds than sun.3 mph83%29.68 "HgN/A
8:30 PM61 °FThundershowers. More clouds than sun.3 mph83%29.68 "HgN/A
8:00 PM61 °FThunderstorms. More clouds than sun.8 mph88%29.65 "HgN/A
7:00 PM61 °FStrong thunderstorms. Partly sunny.18 mph88%29.65 "Hg4 mi
6:30 PM68 °FThunderstorms. Passing clouds.16 mph60%29.65 "HgN/A
6:00 PM70 °FThundershowers. Passing clouds.13 mph60%29.65 "HgN/A
5:30 PM70 °FPassing clouds.15 mph60%29.65 "HgN/A
5:00 PM68 °FPassing clouds.16 mph64%29.65 "HgN/A
4:30 PM68 °FPassing clouds.16 mph64%29.68 "HgN/A
4:00 PM68 °FPassing clouds.17 mph60%29.68 "HgN/A
3:30 PM68 °FThunderstorms. Passing clouds.18 mph64%29.68 "HgN/A
3:00 PM72 °FThunderstorms. Scattered clouds.18 mph53%29.68 "HgN/A
2:30 PM72 °FThunderstorms. Passing clouds.12 mph53%29.68 "HgN/A
2:00 PM72 °FThunderstorms. Passing clouds.12 mph61%29.71 "HgN/A
Weather by CustomWeather, © 2016

See weather overviewHow to use our weather pages